Weather History for Goldsboro, NC

Change the Weather History Date:

Friday, July 19, 2013

  Actual Average Record
Temperature  
Mean Temperature 82 °F -  
Max Temperature 91 °F 87 °F 100 °F (1997)
Min Temperature 75 °F 70 °F 66 °F (2014)
Cooling Degree Days 18    
Growing Degree Days 32 (Base 50)    
Moisture  
Dew Point 73 °F    
Average Humidity 75    
Maximum Humidity 96    
Minimum Humidity 50    
Precipitation  
Precipitation 0.00 in - - ()
Sea Level Pressure  
Sea Level Pressure 30.07 in    
Wind  
Wind Speed 7 mph (SSW)    
Max Wind Speed 12 mph    
Max Gust Speed 20 mph    
Visibility 10 miles    
Events      
Averages and records for this station are not official NWS values.
T = Trace of Precipitation, MM = Missing Value Source: NWS Daily Summary

Daily Weather History Graph

Daily Weather History Graph

Search for Another Location

Airport:

Trip Planner

Search our weather history database for the weather conditions in past years. The results will help you decide how hot, cold, wet, or windy it might be!

Date:

Astronomy

Jul. 19, 2013 Rise Set
Actual Time 6:11 AM EDT 8:24 PM EDT
Civil Twilight 5:42 AM EDT 8:53 PM EDT
Nautical Twilight 5:06 AM EDT 9:28 PM EDT
Astronomical Twilight 4:28 AM EDT 10:07 PM EDT
Moon 5:25 PM EDT (7/19) 2:49 AM EDT (7/19)
Length of Visible Light 15h 11m
Length of Day
14h 13m
Waxing Gibbous, 86% of the Moon is Illuminated
Jul 19
Waxing Gibbous
Jul 22
Full
Jul 29
Last Quarter
Aug 6
New
Aug 14
First Quarter

Hourly Weather History & Observations

Time (EDT) Temp. Heat Index Dew Point Humidity Pressure Visibility Wind Dir Wind Speed Gust Speed Precip Events Conditions
12:58 AM 78.3 °F - 74.7 °F 89% 30.10 in 10.0 mi SSW 5.8 mph - N/A   Clear
1:58 AM 77.4 °F - 75.2 °F 93% 30.10 in 10.0 mi SSW 4.6 mph - N/A   Clear
2:58 AM 77.0 °F - 75.6 °F 95% 30.08 in 10.0 mi SSW 4.6 mph - N/A   Clear
3:58 AM 77.0 °F - 75.4 °F 95% 30.06 in 10.0 mi SW 8.1 mph - N/A   Clear
4:58 AM 76.5 °F - 75.2 °F 96% 30.06 in 10.0 mi SSW 5.8 mph - N/A   Clear
5:58 AM 75.9 °F - 74.3 °F 95% 30.09 in 10.0 mi SW 5.8 mph - N/A   Clear
6:58 AM 75.7 °F - 73.8 °F 94% 30.10 in 10.0 mi SSW 5.8 mph - N/A   Clear
7:58 AM 77.4 °F - 73.9 °F 89% 30.11 in 10.0 mi SW 5.8 mph - N/A   Clear
8:58 AM 80.8 °F 85.1 °F 72.3 °F 75% 30.12 in 10.0 mi SW 6.9 mph - N/A   Clear
9:58 AM 82.9 °F 88.5 °F 72.5 °F 71% 30.12 in 10.0 mi SSW 8.1 mph - N/A   Partly Cloudy
10:58 AM 85.1 °F 91.8 °F 73.2 °F 67% 30.12 in 10.0 mi WSW 10.4 mph - N/A   Clear
11:58 AM 86.5 °F 94.2 °F 73.4 °F 65% 30.11 in 10.0 mi SW 11.5 mph - N/A   Clear
12:58 PM 88.3 °F 96.4 °F 73.4 °F 61% 30.10 in 10.0 mi SSW 9.2 mph - N/A   Scattered Clouds
1:58 PM 89.4 °F 96.3 °F 72.0 °F 56% 30.08 in 10.0 mi SW 10.4 mph - N/A   Partly Cloudy
2:58 PM 89.8 °F 97.5 °F 72.9 °F 57% 30.05 in 10.0 mi SSW 6.9 mph 17.3 mph N/A   Partly Cloudy
3:58 PM 90.7 °F 98.5 °F 72.5 °F 55% 30.03 in 10.0 mi SW 11.5 mph 16.1 mph N/A   Partly Cloudy
4:58 PM 90.7 °F 95.9 °F 69.6 °F 50% 30.01 in 10.0 mi SSW 11.5 mph 19.6 mph N/A   Scattered Clouds
5:58 PM 89.8 °F 96.0 °F 71.1 °F 54% 30.00 in 10.0 mi SSW 9.2 mph - N/A   Scattered Clouds
6:58 PM 88.5 °F 96.8 °F 73.4 °F 61% 30.00 in 10.0 mi SSW 8.1 mph 18.4 mph N/A   Partly Cloudy
7:58 PM 85.6 °F 93.0 °F 73.4 °F 67% 30.00 in 10.0 mi SSW 6.9 mph - N/A   Clear
8:58 PM 82.6 °F 88.6 °F 73.4 °F 74% 30.01 in 10.0 mi South 5.8 mph - N/A   Clear
9:58 PM 80.8 °F 85.6 °F 73.4 °F 78% 30.03 in 10.0 mi South 6.9 mph - N/A   Clear
10:58 PM 79.3 °F - 73.0 °F 81% 30.05 in 10.0 mi South 9.2 mph - N/A   Clear
11:58 PM 78.4 °F - 73.2 °F 84% 30.05 in 10.0 mi South 9.2 mph - N/A   Clear